EZY505T EGKK-LPMA

Flight info

Callsign EZY505T
Flight time 3h 31m
Altitude 33000
Route IMVUR N63 SAM M195 LORKU DCT EBOMO/N0441F350 DCT KORUL DCT DEMOS DCT XANEL DCT OBESA DCT PECKY DCT LIDRO
Aircraft A320/M-SDE3FGHIRWY/LB1

Departure

Time 2026-04-14 09:05
Airport London Gatwick Airport (EGKK)

Arrival

Time 2026-04-14 12:36
Airport Cristiano Ronaldo International Airport (LPMA)
Time Latitude Longitude Altitude Speed Heading
2026-04-14 08:42 51.16060 -0.18032 210 ft 0 kts 77°
2026-04-14 08:52 51.16060 -0.18035 205 ft 2 kts 77°
2026-04-14 08:53 51.16056 -0.18076 207 ft 4 kts 85°
2026-04-14 08:53 51.16053 -0.18115 213 ft 4 kts 96°
2026-04-14 08:53 51.16063 -0.18149 211 ft 4 kts 147°
2026-04-14 08:53 51.16078 -0.18160 209 ft 1 kts 167°
2026-04-14 08:54 51.16081 -0.18161 214 ft 0 kts 167°
2026-04-14 08:56 51.16052 -0.18151 211 ft 6 kts 166°
2026-04-14 08:56 51.16008 -0.18133 208 ft 10 kts 166°
2026-04-14 08:57 51.15929 -0.18105 208 ft 14 kts 168°
2026-04-14 08:57 51.15838 -0.18074 210 ft 12 kts 168°
2026-04-14 08:57 51.15765 -0.18120 210 ft 14 kts 238°
2026-04-14 08:57 51.15695 -0.18167 205 ft 11 kts 186°
2026-04-14 08:58 51.15628 -0.18227 207 ft 7 kts 209°
2026-04-14 08:58 51.15604 -0.18233 213 ft 6 kts 165°
2026-04-14 08:58 51.15528 -0.18200 212 ft 16 kts 166°
2026-04-14 08:58 51.15410 -0.18150 208 ft 16 kts 167°
2026-04-14 08:59 51.15310 -0.18117 210 ft 14 kts 168°
2026-04-14 08:59 51.15242 -0.18092 206 ft 7 kts 167°
2026-04-14 08:59 51.15189 -0.18075 211 ft 10 kts 168°
2026-04-14 08:59 51.15112 -0.18154 208 ft 22 kts 256°
2026-04-14 09:00 51.15072 -0.18458 206 ft 30 kts 257°
2026-04-14 09:00 51.15029 -0.18761 203 ft 28 kts 259°
2026-04-14 09:00 51.14988 -0.19061 204 ft 28 kts 258°
2026-04-14 09:00 51.14949 -0.19350 211 ft 26 kts 258°
2026-04-14 09:01 51.14909 -0.19642 210 ft 27 kts 257°
2026-04-14 09:01 51.14868 -0.19940 206 ft 28 kts 258°
2026-04-14 09:01 51.14825 -0.20250 208 ft 29 kts 257°
2026-04-14 09:01 51.14781 -0.20563 204 ft 28 kts 257°
2026-04-14 09:02 51.14743 -0.20850 203 ft 26 kts 257°
2026-04-14 09:02 51.14703 -0.21132 201 ft 26 kts 257°
2026-04-14 09:02 51.14673 -0.21312 203 ft 11 kts 223°
2026-04-14 09:02 51.14601 -0.21319 213 ft 10 kts 167°
2026-04-14 09:03 51.14547 -0.21273 212 ft 8 kts 136°
2026-04-14 09:03 51.14512 -0.21176 215 ft 13 kts 91°
2026-04-14 09:03 51.14515 -0.21151 204 ft 0 kts 78°
2026-04-14 09:04 51.14516 -0.21142 205 ft 9 kts 77°
2026-04-14 09:04 51.14587 -0.20638 214 ft 81 kts 77°
2026-04-14 09:04 51.14751 -0.19451 206 ft 135 kts 77°
2026-04-14 09:04 51.15006 -0.17769 281 ft 170 kts 79°
2026-04-14 09:05 51.15286 -0.15985 962 ft 165 kts 84°
2026-04-14 09:05 51.15529 -0.14191 1541 ft 168 kts 84°
2026-04-14 09:05 51.15775 -0.12278 1738 ft 185 kts 84°
2026-04-14 09:05 51.16045 -0.10173 1897 ft 205 kts 83°
2026-04-14 09:06 51.16361 -0.07821 2242 ft 226 kts 79°
2026-04-14 09:06 51.17207 -0.05649 2850 ft 245 kts 41°
2026-04-14 09:06 51.18775 -0.04580 2987 ft 250 kts
2026-04-14 09:06 51.20491 -0.04845 3004 ft 247 kts 334°
2026-04-14 09:07 51.21790 -0.06477 3084 ft 237 kts 298°
2026-04-14 09:07 51.22480 -0.08860 3644 ft 242 kts 277°
2026-04-14 09:07 51.22556 -0.11574 4023 ft 251 kts 256°
2026-04-14 09:07 51.22237 -0.14337 4737 ft 256 kts 256°
2026-04-14 09:08 51.21919 -0.17104 5545 ft 258 kts 256°
2026-04-14 09:08 51.21596 -0.19929 6351 ft 260 kts 258°
2026-04-14 09:08 51.21269 -0.22787 7102 ft 263 kts 258°
2026-04-14 09:08 51.20939 -0.25667 7858 ft 264 kts 259°
2026-04-14 09:09 51.20605 -0.28566 8558 ft 268 kts 259°
2026-04-14 09:09 51.20265 -0.31501 9307 ft 271 kts 260°
2026-04-14 09:09 51.19922 -0.34458 10050 ft 272 kts 261°
2026-04-14 09:09 51.19684 -0.36434 10441 ft 276 kts 259°
2026-04-14 09:10 51.19301 -0.39453 11083 ft 278 kts 259°
2026-04-14 09:10 51.18899 -0.42493 11705 ft 282 kts 259°
2026-04-14 09:10 51.18488 -0.45564 12357 ft 284 kts 259°
2026-04-14 09:10 51.18076 -0.48656 13032 ft 286 kts 259°
2026-04-14 09:11 51.17512 -0.52782 13892 ft 289 kts 255°
2026-04-14 09:11 51.17060 -0.54850 14118 ft 299 kts 249°
2026-04-14 09:11 51.16234 -0.57998 14247 ft 318 kts 248°
2026-04-14 09:11 51.15346 -0.61323 14366 ft 335 kts 248°
2026-04-14 09:12 51.14413 -0.64788 14715 ft 344 kts 248°
2026-04-14 09:12 51.13465 -0.68306 15219 ft 348 kts 248°
2026-04-14 09:12 51.12511 -0.71858 15760 ft 350 kts 249°
2026-04-14 09:12 51.11551 -0.75438 16288 ft 353 kts 249°
2026-04-14 09:13 51.10583 -0.79052 16821 ft 356 kts 249°
2026-04-14 09:13 51.09608 -0.82692 17349 ft 359 kts 249°
2026-04-14 09:13 51.08637 -0.86305 17856 ft 361 kts 249°
2026-04-14 09:13 51.07640 -0.89989 18361 ft 364 kts 249°
2026-04-14 09:14 51.06636 -0.93699 18805 ft 367 kts 249°
2026-04-14 09:14 51.05626 -0.97438 19237 ft 369 kts 249°
2026-04-14 09:14 51.04611 -1.01198 19679 ft 371 kts 250°
2026-04-14 09:14 51.03589 -1.04974 20112 ft 373 kts 250°
2026-04-14 09:15 51.02559 -1.08769 20545 ft 375 kts 250°
2026-04-14 09:15 51.01522 -1.12587 20980 ft 377 kts 250°
2026-04-14 09:15 51.00480 -1.16419 21406 ft 379 kts 250°
2026-04-14 09:15 50.99432 -1.20265 21825 ft 381 kts 251°
2026-04-14 09:16 50.98377 -1.24126 22237 ft 383 kts 251°
2026-04-14 09:16 50.97313 -1.28009 22647 ft 385 kts 251°
2026-04-14 09:16 50.96054 -1.31789 23039 ft 392 kts 241°
2026-04-14 09:16 50.94321 -1.35191 23423 ft 402 kts 231°
2026-04-14 09:17 50.92146 -1.38056 23771 ft 413 kts 220°
2026-04-14 09:17 50.89735 -1.40561 24076 ft 415 kts 219°
2026-04-14 09:17 50.87315 -1.43068 24401 ft 416 kts 219°
2026-04-14 09:17 50.84921 -1.45549 24695 ft 418 kts 219°
2026-04-14 09:18 50.82477 -1.48086 25000 ft 420 kts 219°
2026-04-14 09:18 50.80029 -1.50629 25294 ft 422 kts 219°
2026-04-14 09:18 50.77570 -1.53182 25579 ft 424 kts 219°
2026-04-14 09:18 50.75097 -1.55746 25879 ft 425 kts 220°
2026-04-14 09:19 50.72618 -1.58313 26180 ft 427 kts 220°
2026-04-14 09:19 50.70126 -1.60885 26465 ft 429 kts 220°
2026-04-14 09:19 50.67623 -1.63461 26752 ft 430 kts 220°
2026-04-14 09:19 50.65110 -1.66044 27031 ft 432 kts 220°
2026-04-14 09:20 50.62585 -1.68632 27276 ft 434 kts 220°
2026-04-14 09:20 50.60048 -1.71230 27528 ft 437 kts 220°
2026-04-14 09:20 50.57496 -1.73841 27794 ft 438 kts 220°
2026-04-14 09:20 50.54933 -1.76463 28060 ft 440 kts 220°
2026-04-14 09:21 50.52365 -1.79093 28334 ft 442 kts 220°
2026-04-14 09:21 50.49787 -1.81734 28593 ft 443 kts 220°
2026-04-14 09:21 50.47196 -1.84380 28850 ft 445 kts 220°
2026-04-14 09:21 50.44595 -1.87025 29076 ft 446 kts 220°
2026-04-14 09:22 50.41983 -1.89675 29308 ft 448 kts 220°
2026-04-14 09:22 50.39359 -1.92336 29522 ft 450 kts 220°
2026-04-14 09:22 50.36723 -1.95009 29708 ft 452 kts 220°
2026-04-14 09:22 50.34114 -1.97654 29918 ft 454 kts 220°
2026-04-14 09:23 50.31454 -2.00346 30151 ft 455 kts 220°
2026-04-14 09:23 50.28790 -2.03036 30410 ft 455 kts 220°
2026-04-14 09:23 50.26133 -2.05716 30652 ft 455 kts 220°
2026-04-14 09:23 50.23473 -2.08392 30883 ft 455 kts 220°
2026-04-14 09:24 50.20793 -2.11042 31103 ft 456 kts 219°
2026-04-14 09:24 50.18099 -2.13667 31320 ft 457 kts 219°
2026-04-14 09:24 50.15396 -2.16280 31509 ft 458 kts 219°
2026-04-14 09:24 50.12679 -2.18897 31716 ft 460 kts 219°
2026-04-14 09:25 50.09959 -2.21516 31910 ft 460 kts 219°
2026-04-14 09:25 50.07235 -2.24144 32131 ft 460 kts 220°
2026-04-14 09:25 50.04513 -2.26780 32351 ft 461 kts 220°
2026-04-14 09:25 50.01786 -2.29421 32567 ft 461 kts 220°
2026-04-14 09:26 49.99068 -2.32048 32829 ft 460 kts 220°
2026-04-14 09:26 49.96347 -2.34674 33032 ft 460 kts 220°
2026-04-14 09:26 49.90941 -2.39880 33076 ft 455 kts 220°
2026-04-14 09:27 49.85569 -2.45043 33076 ft 454 kts 220°
2026-04-14 09:27 49.80195 -2.50205 33077 ft 454 kts 220°
2026-04-14 09:28 49.74853 -2.55323 33068 ft 454 kts 220°
2026-04-14 09:28 49.69473 -2.60452 33050 ft 455 kts 220°
2026-04-14 09:29 49.64075 -2.65581 33051 ft 455 kts 220°
2026-04-14 09:29 49.58681 -2.70706 33043 ft 455 kts 219°
2026-04-14 09:30 49.53298 -2.75809 33082 ft 454 kts 219°
2026-04-14 09:30 49.47921 -2.80884 33070 ft 453 kts 219°
2026-04-14 09:31 49.42543 -2.85942 33042 ft 453 kts 219°
2026-04-14 09:31 49.37170 -2.90993 33038 ft 453 kts 219°
2026-04-14 09:32 49.31828 -2.96007 33038 ft 453 kts 219°
2026-04-14 09:33 49.23752 -3.03548 33022 ft 454 kts 219°
2026-04-14 09:33 49.18344 -3.08567 33028 ft 454 kts 219°
2026-04-14 09:34 49.12946 -3.13585 33033 ft 454 kts 219°
2026-04-14 09:34 49.07552 -3.18586 33037 ft 453 kts 219°
2026-04-14 09:35 49.02162 -3.23563 33037 ft 453 kts 218°
2026-04-14 09:35 48.96772 -3.28534 33036 ft 453 kts 218°
2026-04-14 09:36 48.91414 -3.33459 33035 ft 453 kts 218°
2026-04-14 09:36 48.86011 -3.38411 33041 ft 453 kts 218°
2026-04-14 09:37 48.80604 -3.43346 33048 ft 453 kts 218°
2026-04-14 09:37 48.75201 -3.48269 33047 ft 453 kts 218°
2026-04-14 09:38 48.69796 -3.53182 33057 ft 452 kts 218°
2026-04-14 09:38 48.64405 -3.58074 33060 ft 451 kts 218°
2026-04-14 09:39 48.59022 -3.62952 33040 ft 451 kts 218°
2026-04-14 09:39 48.53638 -3.67817 33029 ft 451 kts 218°
2026-04-14 09:40 48.48275 -3.72648 33024 ft 452 kts 218°
2026-04-14 09:40 48.42876 -3.77504 33024 ft 452 kts 218°
2026-04-14 09:41 48.37469 -3.82339 33024 ft 452 kts 218°
2026-04-14 09:41 48.32054 -3.87168 33014 ft 452 kts 218°
2026-04-14 09:42 48.26646 -3.91982 33049 ft 451 kts 218°
2026-04-14 09:42 48.21256 -3.96784 33063 ft 450 kts 218°
2026-04-14 09:43 48.15875 -4.01568 33072 ft 450 kts 218°
2026-04-14 09:43 48.10529 -4.06295 33055 ft 449 kts 218°
2026-04-14 09:44 48.05139 -4.11045 33057 ft 449 kts 218°
2026-04-14 09:44 47.99752 -4.15792 33057 ft 449 kts 218°
2026-04-14 09:45 47.94370 -4.20539 33060 ft 449 kts 218°
2026-04-14 09:45 47.88980 -4.25263 33041 ft 449 kts 217°
2026-04-14 09:46 47.83591 -4.29967 33055 ft 449 kts 217°
2026-04-14 09:46 47.78239 -4.34721 33072 ft 447 kts 219°
2026-04-14 09:47 47.72994 -4.39643 33072 ft 445 kts 219°
2026-04-14 09:47 47.67790 -4.44557 33048 ft 446 kts 219°
2026-04-14 09:48 47.62527 -4.49448 33051 ft 446 kts 219°
2026-04-14 09:48 47.57251 -4.54307 33052 ft 447 kts 219°
2026-04-14 09:49 47.51970 -4.59155 33060 ft 447 kts 219°
2026-04-14 09:49 47.46688 -4.64008 33045 ft 447 kts 218°
2026-04-14 09:50 47.41396 -4.68854 33046 ft 448 kts 218°
2026-04-14 09:50 47.36094 -4.73698 33046 ft 448 kts 218°
2026-04-14 09:51 47.30792 -4.78538 33050 ft 449 kts 218°
2026-04-14 09:51 47.25471 -4.83370 33043 ft 449 kts 218°
2026-04-14 09:52 47.20144 -4.88190 33044 ft 449 kts 218°
2026-04-14 09:52 47.14849 -4.92980 33046 ft 450 kts 218°
2026-04-14 09:53 47.09518 -4.97802 33061 ft 449 kts 218°
2026-04-14 09:53 47.04195 -5.02606 33057 ft 449 kts 218°
2026-04-14 09:54 46.98864 -5.07400 33063 ft 449 kts 218°
2026-04-14 09:54 46.93538 -5.12172 33064 ft 449 kts 218°
2026-04-14 09:55 46.88244 -5.16902 33060 ft 449 kts 218°
2026-04-14 09:55 46.82916 -5.21662 33050 ft 449 kts 218°
2026-04-14 09:56 46.77587 -5.26405 33047 ft 449 kts 217°
2026-04-14 09:56 46.72244 -5.31139 33048 ft 449 kts 218°
2026-04-14 09:57 46.66917 -5.35860 33064 ft 448 kts 218°
2026-04-14 09:57 46.61598 -5.40565 33069 ft 447 kts 218°
2026-04-14 09:58 46.56277 -5.45241 33070 ft 447 kts 217°
2026-04-14 09:58 46.50957 -5.49923 33078 ft 447 kts 218°
2026-04-14 09:59 46.45648 -5.54588 33066 ft 446 kts 217°
2026-04-14 09:59 46.40370 -5.59208 33051 ft 446 kts 217°
2026-04-14 10:00 46.35049 -5.63867 33048 ft 446 kts 218°
2026-04-14 10:00 46.29723 -5.68525 33075 ft 447 kts 217°
2026-04-14 10:01 46.24396 -5.73155 33080 ft 446 kts 217°
2026-04-14 10:01 46.19080 -5.77758 33066 ft 445 kts 217°
2026-04-14 10:02 46.13766 -5.82355 33068 ft 446 kts 217°
2026-04-14 10:02 46.09347 -5.86179 33075 ft 446 kts 217°
2026-04-14 10:03 46.03157 -5.91511 33076 ft 446 kts 217°
2026-04-14 10:03 45.97827 -5.96089 33070 ft 446 kts 217°
2026-04-14 10:04 45.93362 -5.99925 33092 ft 447 kts 217°
2026-04-14 10:04 45.88061 -6.04462 33086 ft 445 kts 217°
2026-04-14 10:05 45.82744 -6.08996 33088 ft 444 kts 217°
2026-04-14 10:05 45.77431 -6.13532 33075 ft 445 kts 217°
2026-04-14 10:06 45.72101 -6.18071 33089 ft 446 kts 217°
2026-04-14 10:06 45.66760 -6.22601 33089 ft 446 kts 217°
2026-04-14 10:07 45.61415 -6.27135 33095 ft 447 kts 217°
2026-04-14 10:07 45.56070 -6.31653 33097 ft 446 kts 217°
2026-04-14 10:08 45.50755 -6.36122 33102 ft 447 kts 217°
2026-04-14 10:08 45.45402 -6.40626 33105 ft 447 kts 217°
2026-04-14 10:09 45.40049 -6.45124 33122 ft 447 kts 216°
2026-04-14 10:09 45.34681 -6.49615 33113 ft 447 kts 217°
2026-04-14 10:10 45.29314 -6.54101 33117 ft 447 kts 217°
2026-04-14 10:10 45.23948 -6.58577 33112 ft 447 kts 217°
2026-04-14 10:11 45.18593 -6.63039 33121 ft 446 kts 216°
2026-04-14 10:11 45.13241 -6.67488 33123 ft 446 kts 216°
2026-04-14 10:12 45.07882 -6.71922 33126 ft 446 kts 216°
2026-04-14 10:12 45.02561 -6.76320 33126 ft 446 kts 216°
2026-04-14 10:13 44.97196 -6.80736 33121 ft 446 kts 216°
2026-04-14 10:13 44.91835 -6.85144 33118 ft 446 kts 216°
2026-04-14 10:14 44.86465 -6.89554 33125 ft 446 kts 216°
2026-04-14 10:14 44.81120 -6.93978 33131 ft 444 kts 217°
2026-04-14 10:15 44.75925 -6.98576 33127 ft 443 kts 218°
2026-04-14 10:15 44.70725 -7.03285 33132 ft 444 kts 218°
2026-04-14 10:16 44.65504 -7.07951 33138 ft 445 kts 218°
2026-04-14 10:16 44.60259 -7.12564 33142 ft 445 kts 218°
2026-04-14 10:17 44.55013 -7.17172 33146 ft 445 kts 218°
2026-04-14 10:17 44.49768 -7.21779 33149 ft 444 kts 218°
2026-04-14 10:18 44.41945 -7.28627 33154 ft 444 kts 217°
2026-04-14 10:18 44.36705 -7.33198 33153 ft 444 kts 217°
2026-04-14 10:19 44.31464 -7.37764 33154 ft 443 kts 217°
2026-04-14 10:19 44.26230 -7.42319 33162 ft 443 kts 217°
2026-04-14 10:20 44.20989 -7.46861 33165 ft 444 kts 217°
2026-04-14 10:20 44.15777 -7.51372 33150 ft 444 kts 217°
2026-04-14 10:21 44.10526 -7.55913 33159 ft 444 kts 217°
2026-04-14 10:21 44.05268 -7.60444 33158 ft 445 kts 217°
2026-04-14 10:22 44.00013 -7.64959 33182 ft 444 kts 217°
2026-04-14 10:22 43.94757 -7.69473 33181 ft 443 kts 217°
2026-04-14 10:23 43.89513 -7.73974 33175 ft 443 kts 217°
2026-04-14 10:23 43.84261 -7.78461 33189 ft 443 kts 217°
2026-04-14 10:24 43.79043 -7.82909 33186 ft 443 kts 217°
2026-04-14 10:24 43.73791 -7.87384 33172 ft 443 kts 217°
2026-04-14 10:25 43.68532 -7.91852 33180 ft 444 kts 217°
2026-04-14 10:25 43.63260 -7.96322 33191 ft 445 kts 217°
2026-04-14 10:26 43.57978 -8.00785 33185 ft 445 kts 217°
2026-04-14 10:26 43.52697 -8.05236 33175 ft 445 kts 217°
2026-04-14 10:27 43.47413 -8.09690 33191 ft 445 kts 217°
2026-04-14 10:27 43.42128 -8.14130 33202 ft 445 kts 217°
2026-04-14 10:28 43.36845 -8.18567 33202 ft 445 kts 217°
2026-04-14 10:28 43.31556 -8.22997 33198 ft 445 kts 217°
2026-04-14 10:29 43.26300 -8.27380 33201 ft 445 kts 217°
2026-04-14 10:29 43.21001 -8.31795 33200 ft 445 kts 217°
2026-04-14 10:30 43.15708 -8.36203 33185 ft 445 kts 216°
2026-04-14 10:30 43.10419 -8.40602 33195 ft 445 kts 217°
2026-04-14 10:31 43.05128 -8.44993 33197 ft 445 kts 216°
2026-04-14 10:31 42.99833 -8.49376 33208 ft 445 kts 216°
2026-04-14 10:32 42.94540 -8.53749 33214 ft 445 kts 216°
2026-04-14 10:32 42.89235 -8.58109 33201 ft 445 kts 216°
2026-04-14 10:33 42.83967 -8.62437 33211 ft 445 kts 216°
2026-04-14 10:33 42.78660 -8.66790 33213 ft 445 kts 216°
2026-04-14 10:34 42.70689 -8.73315 33215 ft 445 kts 216°
2026-04-14 10:35 42.65392 -8.77640 33226 ft 444 kts 216°
2026-04-14 10:35 42.60097 -8.81943 33239 ft 443 kts 216°
2026-04-14 10:36 42.54814 -8.86232 33238 ft 442 kts 216°
2026-04-14 10:36 42.49538 -8.90517 33248 ft 442 kts 216°
2026-04-14 10:37 42.44265 -8.94794 33246 ft 442 kts 216°
2026-04-14 10:37 42.38984 -8.99061 33249 ft 441 kts 216°
2026-04-14 10:38 42.33710 -9.03315 33247 ft 441 kts 216°
2026-04-14 10:38 42.28467 -9.07535 33240 ft 441 kts 216°
2026-04-14 10:39 42.23192 -9.11772 33233 ft 441 kts 216°
2026-04-14 10:39 42.17921 -9.15994 33242 ft 440 kts 216°
2026-04-14 10:40 42.12652 -9.20199 33250 ft 440 kts 216°
2026-04-14 10:40 42.07384 -9.24403 33252 ft 440 kts 216°
2026-04-14 10:41 42.02117 -9.28609 33248 ft 440 kts 216°
2026-04-14 10:41 41.96854 -9.32798 33254 ft 440 kts 216°
2026-04-14 10:42 41.91722 -9.37223 33247 ft 434 kts 225°
2026-04-14 10:42 41.87206 -9.42562 33249 ft 433 kts 226°
2026-04-14 10:43 41.82701 -9.47890 33242 ft 433 kts 226°
2026-04-14 10:43 41.78175 -9.53232 33238 ft 432 kts 226°
2026-04-14 10:44 41.73687 -9.58517 33246 ft 432 kts 226°
2026-04-14 10:44 41.69168 -9.63834 33251 ft 432 kts 226°
2026-04-14 10:45 41.64651 -9.69146 33252 ft 432 kts 226°
2026-04-14 10:45 41.60123 -9.74446 33261 ft 432 kts 226°
2026-04-14 10:46 41.55591 -9.79731 33252 ft 433 kts 226°
2026-04-14 10:46 41.51049 -9.85026 33249 ft 432 kts 225°
2026-04-14 10:47 41.46559 -9.90263 33265 ft 432 kts 225°
2026-04-14 10:47 41.42030 -9.95528 33271 ft 431 kts 225°
2026-04-14 10:48 41.37509 -10.00776 33271 ft 431 kts 225°
2026-04-14 10:48 41.32986 -10.06005 33264 ft 431 kts 225°
2026-04-14 10:49 41.28468 -10.11231 33264 ft 431 kts 225°
2026-04-14 10:49 41.23945 -10.16453 33265 ft 431 kts 225°
2026-04-14 10:50 41.19419 -10.21667 33264 ft 430 kts 225°
2026-04-14 10:50 41.14899 -10.26867 33280 ft 429 kts 225°
2026-04-14 10:51 41.10392 -10.32047 33281 ft 428 kts 225°
2026-04-14 10:51 41.05904 -10.37177 33270 ft 428 kts 225°
2026-04-14 10:52 41.01386 -10.42330 33268 ft 428 kts 225°
2026-04-14 10:52 40.96870 -10.47480 33268 ft 429 kts 225°
2026-04-14 10:53 40.92348 -10.52627 33270 ft 429 kts 225°
2026-04-14 10:53 40.87824 -10.57759 33273 ft 428 kts 225°
2026-04-14 10:54 40.83301 -10.62883 33270 ft 428 kts 225°
2026-04-14 10:54 40.78788 -10.68000 33274 ft 428 kts 225°
2026-04-14 10:55 40.74305 -10.73079 33279 ft 427 kts 225°
2026-04-14 10:55 40.69786 -10.78178 33280 ft 427 kts 224°
2026-04-14 10:56 40.65261 -10.83264 33284 ft 427 kts 224°
2026-04-14 10:56 40.60734 -10.88357 33270 ft 427 kts 225°
2026-04-14 10:57 40.56968 -10.92576 33276 ft 428 kts 224°
2026-04-14 10:57 40.52443 -10.97648 33273 ft 427 kts 224°
2026-04-14 10:58 40.47174 -11.03528 33283 ft 427 kts 224°
2026-04-14 10:58 40.43375 -11.07753 33285 ft 427 kts 224°
2026-04-14 10:59 40.38852 -11.12793 33289 ft 426 kts 224°
2026-04-14 10:59 40.34331 -11.17834 33274 ft 427 kts 224°
2026-04-14 11:00 40.29802 -11.22869 33275 ft 427 kts 224°
2026-04-14 11:00 40.25292 -11.27866 33283 ft 427 kts 224°
2026-04-14 11:01 40.20745 -11.32893 33270 ft 427 kts 224°
2026-04-14 11:01 40.16195 -11.37900 33296 ft 427 kts 224°
2026-04-14 11:02 40.11652 -11.42893 33298 ft 426 kts 224°
2026-04-14 11:02 40.07122 -11.47885 33302 ft 426 kts 224°
2026-04-14 11:03 40.02580 -11.52877 33301 ft 426 kts 224°
2026-04-14 11:03 39.98047 -11.57850 33302 ft 426 kts 224°
2026-04-14 11:04 39.93536 -11.62776 33299 ft 426 kts 224°
2026-04-14 11:04 39.88996 -11.67728 33300 ft 426 kts 224°
2026-04-14 11:05 39.84455 -11.72677 33287 ft 426 kts 224°
2026-04-14 11:05 39.79909 -11.77627 33285 ft 426 kts 224°
2026-04-14 11:06 39.75357 -11.82572 33292 ft 426 kts 224°
2026-04-14 11:06 39.70803 -11.87509 33293 ft 426 kts 224°
2026-04-14 11:07 39.66237 -11.92444 33294 ft 427 kts 224°
2026-04-14 11:07 39.61680 -11.97373 33286 ft 427 kts 224°
2026-04-14 11:08 39.57143 -12.02264 33285 ft 427 kts 224°
2026-04-14 11:08 39.52568 -12.07188 33293 ft 427 kts 224°
2026-04-14 11:09 39.48003 -12.12097 33304 ft 426 kts 224°
2026-04-14 11:09 39.43433 -12.16988 33308 ft 426 kts 224°
2026-04-14 11:10 39.36124 -12.23607 33299 ft 430 kts 215°
2026-04-14 11:10 39.30982 -12.27591 33298 ft 431 kts 215°
2026-04-14 11:11 39.25833 -12.31566 33294 ft 431 kts 215°
2026-04-14 11:11 39.20679 -12.35544 33302 ft 431 kts 215°
2026-04-14 11:12 39.15531 -12.39522 33304 ft 431 kts 215°
2026-04-14 11:12 39.10384 -12.43493 33302 ft 431 kts 215°
2026-04-14 11:13 39.05242 -12.47452 33316 ft 431 kts 215°
2026-04-14 11:13 39.00132 -12.51378 33313 ft 430 kts 215°
2026-04-14 11:14 38.94991 -12.55321 33314 ft 430 kts 214°
2026-04-14 11:14 38.89844 -12.59245 33315 ft 430 kts 214°
2026-04-14 11:15 38.84702 -12.63176 33309 ft 430 kts 214°
2026-04-14 11:15 38.79558 -12.67096 33311 ft 430 kts 214°
2026-04-14 11:16 38.74408 -12.71015 33312 ft 430 kts 214°
2026-04-14 11:16 38.69257 -12.74931 33316 ft 430 kts 214°
2026-04-14 11:17 38.64110 -12.78842 33308 ft 430 kts 214°
2026-04-14 11:17 38.58999 -12.82719 33319 ft 429 kts 214°
2026-04-14 11:18 38.53855 -12.86603 33323 ft 429 kts 214°
2026-04-14 11:18 38.48717 -12.90484 33328 ft 429 kts 214°
2026-04-14 11:19 38.43584 -12.94360 33328 ft 429 kts 214°
2026-04-14 11:19 38.38442 -12.98231 33317 ft 429 kts 214°
2026-04-14 11:20 38.33290 -13.02084 33319 ft 429 kts 214°
2026-04-14 11:20 38.28139 -13.05941 33320 ft 429 kts 214°
2026-04-14 11:21 38.23030 -13.09777 33325 ft 429 kts 214°
2026-04-14 11:21 38.17891 -13.13628 33321 ft 429 kts 213°
2026-04-14 11:22 38.12749 -13.17462 33332 ft 428 kts 213°
2026-04-14 11:22 38.07609 -13.21279 33339 ft 428 kts 213°
2026-04-14 11:23 38.02480 -13.25093 33343 ft 427 kts 213°
2026-04-14 11:23 37.97351 -13.28914 33328 ft 427 kts 213°
2026-04-14 11:24 37.92228 -13.32721 33330 ft 427 kts 213°
2026-04-14 11:24 37.87122 -13.36484 33319 ft 427 kts 213°
2026-04-14 11:25 37.81991 -13.40270 33322 ft 427 kts 213°
2026-04-14 11:25 37.76852 -13.44066 33329 ft 428 kts 213°
2026-04-14 11:26 37.71704 -13.47848 33318 ft 428 kts 213°
2026-04-14 11:26 37.66563 -13.51636 33336 ft 428 kts 213°
2026-04-14 11:27 37.61425 -13.55405 33334 ft 427 kts 213°
2026-04-14 11:27 37.56283 -13.59167 33338 ft 427 kts 213°
2026-04-14 11:28 37.51151 -13.62920 33345 ft 426 kts 213°
2026-04-14 11:28 37.46022 -13.66668 33342 ft 426 kts 213°
2026-04-14 11:29 37.40930 -13.70388 33346 ft 426 kts 213°
2026-04-14 11:29 37.35802 -13.74133 33333 ft 426 kts 213°
2026-04-14 11:30 37.30661 -13.77868 33326 ft 427 kts 212°
2026-04-14 11:30 37.25513 -13.81592 33336 ft 427 kts 212°
2026-04-14 11:31 37.20365 -13.85318 33327 ft 427 kts 212°
2026-04-14 11:31 37.15227 -13.89052 33334 ft 427 kts 212°
2026-04-14 11:32 37.10076 -13.92775 33333 ft 426 kts 212°
2026-04-14 11:32 37.04938 -13.96475 33339 ft 426 kts 212°
2026-04-14 11:33 36.99833 -14.00147 33343 ft 426 kts 212°
2026-04-14 11:34 36.92123 -14.05681 33346 ft 426 kts 212°
2026-04-14 11:34 36.86982 -14.09371 33332 ft 426 kts 212°
2026-04-14 11:35 36.81844 -14.13064 33330 ft 426 kts 212°
2026-04-14 11:35 36.76699 -14.16750 33331 ft 427 kts 212°
2026-04-14 11:36 36.71550 -14.20419 33333 ft 427 kts 212°
2026-04-14 11:36 36.66387 -14.24086 33344 ft 427 kts 210°
2026-04-14 11:37 36.60953 -14.27085 33338 ft 427 kts 205°
2026-04-14 11:37 36.55475 -14.29968 33338 ft 427 kts 205°
2026-04-14 11:38 36.50036 -14.32836 33337 ft 428 kts 205°
2026-04-14 11:38 36.44557 -14.35724 33339 ft 428 kts 205°
2026-04-14 11:39 36.39075 -14.38597 33344 ft 428 kts 205°
2026-04-14 11:39 36.33596 -14.41472 33337 ft 428 kts 205°
2026-04-14 11:40 36.28117 -14.44350 33336 ft 428 kts 205°
2026-04-14 11:40 36.22622 -14.47217 33338 ft 428 kts 205°
2026-04-14 11:41 36.17172 -14.50060 33342 ft 428 kts 205°
2026-04-14 11:41 36.11680 -14.52913 33343 ft 428 kts 205°
2026-04-14 11:42 36.06195 -14.55769 33331 ft 428 kts 204°
2026-04-14 11:42 36.00706 -14.58630 33337 ft 428 kts 204°
2026-04-14 11:43 35.95217 -14.61477 33345 ft 427 kts 204°
2026-04-14 11:43 35.89734 -14.64312 33350 ft 427 kts 204°
2026-04-14 11:44 35.84291 -14.67124 33351 ft 427 kts 204°
2026-04-14 11:44 35.78807 -14.69957 33341 ft 427 kts 204°
2026-04-14 11:45 35.73319 -14.72786 33341 ft 427 kts 204°
2026-04-14 11:45 35.67828 -14.75611 33341 ft 427 kts 204°
2026-04-14 11:46 35.62343 -14.78428 33342 ft 427 kts 204°
2026-04-14 11:46 35.56852 -14.81236 33340 ft 427 kts 204°
2026-04-14 11:47 35.51363 -14.84047 33335 ft 428 kts 204°
2026-04-14 11:47 35.45900 -14.86849 33337 ft 428 kts 204°
2026-04-14 11:48 35.40398 -14.89661 33340 ft 428 kts 204°
2026-04-14 11:48 35.34900 -14.92463 33341 ft 428 kts 204°
2026-04-14 11:49 35.29398 -14.95269 33334 ft 428 kts 204°
2026-04-14 11:49 35.23898 -14.98066 33337 ft 428 kts 204°
2026-04-14 11:50 35.19324 -15.00390 33342 ft 428 kts 203°
2026-04-14 11:50 35.13825 -15.03186 33348 ft 428 kts 204°
2026-04-14 11:51 35.04675 -15.07812 33347 ft 428 kts 203°
2026-04-14 11:51 35.00063 -15.10148 33350 ft 428 kts 203°
2026-04-14 11:52 34.94600 -15.12916 33349 ft 428 kts 203°
2026-04-14 11:52 34.89097 -15.15681 33345 ft 428 kts 203°
2026-04-14 11:53 34.83593 -15.18449 33347 ft 428 kts 203°
2026-04-14 11:53 34.78090 -15.21218 33341 ft 428 kts 203°
2026-04-14 11:54 34.72585 -15.23983 33339 ft 428 kts 203°
2026-04-14 11:54 34.67074 -15.26742 33341 ft 428 kts 203°
2026-04-14 11:55 34.61563 -15.29500 33339 ft 428 kts 203°
2026-04-14 11:55 34.56049 -15.32253 33339 ft 429 kts 203°
2026-04-14 11:56 34.50732 -15.35393 33334 ft 427 kts 211°
2026-04-14 11:56 34.45616 -15.39077 33338 ft 428 kts 211°
2026-04-14 11:57 34.40490 -15.42740 33339 ft 428 kts 211°
2026-04-14 11:57 34.35360 -15.46394 33338 ft 428 kts 211°
2026-04-14 11:58 34.30237 -15.50064 33341 ft 428 kts 211°
2026-04-14 11:58 34.25107 -15.53732 33343 ft 428 kts 211°
2026-04-14 11:59 34.19974 -15.57397 33338 ft 428 kts 211°
2026-04-14 11:59 34.14854 -15.61037 33129 ft 423 kts 211°
2026-04-14 12:00 34.12347 -15.62813 32936 ft 413 kts 211°
2026-04-14 12:00 34.09878 -15.64562 32936 ft 411 kts 211°
2026-04-14 12:00 34.04994 -15.68023 32779 ft 409 kts 211°
2026-04-14 12:01 34.02534 -15.69764 32197 ft 409 kts 211°
2026-04-14 12:01 34.00088 -15.71496 31718 ft 406 kts 211°
2026-04-14 12:01 33.97659 -15.73216 31243 ft 403 kts 211°
2026-04-14 12:01 33.95247 -15.74921 30790 ft 401 kts 211°
2026-04-14 12:02 33.92850 -15.76613 30300 ft 398 kts 212°
2026-04-14 12:02 33.90470 -15.78290 29813 ft 394 kts 212°
2026-04-14 12:02 33.88116 -15.79946 29380 ft 389 kts 211°
2026-04-14 12:02 33.85789 -15.81583 28960 ft 385 kts 211°
2026-04-14 12:03 33.83491 -15.83202 28523 ft 381 kts 211°
2026-04-14 12:03 33.81218 -15.84804 28100 ft 377 kts 211°
2026-04-14 12:03 33.78969 -15.86387 27685 ft 373 kts 212°
2026-04-14 12:03 33.76743 -15.87952 27266 ft 369 kts 211°
2026-04-14 12:04 33.74537 -15.89504 26852 ft 366 kts 211°
2026-04-14 12:04 33.72348 -15.91041 26435 ft 363 kts 212°
2026-04-14 12:04 33.70171 -15.92568 25999 ft 359 kts 211°
2026-04-14 12:04 33.68035 -15.94066 25588 ft 352 kts 211°
2026-04-14 12:05 33.65942 -15.95544 25154 ft 345 kts 212°
2026-04-14 12:05 33.63926 -15.97041 24728 ft 335 kts 214°
2026-04-14 12:05 33.62002 -15.98524 24309 ft 333 kts 214°
2026-04-14 12:05 33.60068 -16.00039 23884 ft 332 kts 214°
2026-04-14 12:06 33.58136 -16.01551 23413 ft 330 kts 214°
2026-04-14 12:06 33.56218 -16.03046 22977 ft 328 kts 214°
2026-04-14 12:06 33.54308 -16.04522 22574 ft 326 kts 214°
2026-04-14 12:06 33.52399 -16.05986 22165 ft 325 kts 214°
2026-04-14 12:07 33.50502 -16.07436 21759 ft 323 kts 214°
2026-04-14 12:07 33.48613 -16.08876 21364 ft 321 kts 213°
2026-04-14 12:07 33.46733 -16.10309 20962 ft 320 kts 214°
2026-04-14 12:07 33.44865 -16.11736 20567 ft 318 kts 214°
2026-04-14 12:08 33.43002 -16.13157 20171 ft 316 kts 214°
2026-04-14 12:08 33.41154 -16.14569 19784 ft 315 kts 214°
2026-04-14 12:08 33.39311 -16.15977 19389 ft 314 kts 214°
2026-04-14 12:08 33.37472 -16.17384 19018 ft 313 kts 215°
2026-04-14 12:09 33.35640 -16.18783 18481 ft 313 kts 215°
2026-04-14 12:09 33.33772 -16.20209 17528 ft 322 kts 214°
2026-04-14 12:09 33.31856 -16.21670 16923 ft 329 kts 214°
2026-04-14 12:09 33.29923 -16.23140 16589 ft 330 kts 213°
2026-04-14 12:10 33.27984 -16.24610 16203 ft 330 kts 214°
2026-04-14 12:10 33.26047 -16.26078 15806 ft 330 kts 215°
2026-04-14 12:10 33.24107 -16.27547 15414 ft 330 kts 213°
2026-04-14 12:10 33.22167 -16.29016 15044 ft 330 kts 213°
2026-04-14 12:11 33.20230 -16.30485 14670 ft 330 kts 214°
2026-04-14 12:11 33.18289 -16.31959 14298 ft 330 kts 213°
2026-04-14 12:11 33.16376 -16.33410 13916 ft 330 kts 214°
2026-04-14 12:11 33.14416 -16.34896 13495 ft 330 kts 213°
2026-04-14 12:12 33.12485 -16.36357 13083 ft 326 kts 213°
2026-04-14 12:12 33.10584 -16.37796 12673 ft 321 kts 213°
2026-04-14 12:12 33.08740 -16.39192 12280 ft 316 kts 213°
2026-04-14 12:12 33.06886 -16.40594 11887 ft 314 kts 212°
2026-04-14 12:13 33.05038 -16.41990 11499 ft 314 kts 212°
2026-04-14 12:13 33.03202 -16.43378 11113 ft 311 kts 212°
2026-04-14 12:13 33.01385 -16.44752 10733 ft 309 kts 212°
2026-04-14 12:13 32.99573 -16.46122 10358 ft 308 kts 212°
2026-04-14 12:14 32.97773 -16.47483 9960 ft 305 kts 212°
2026-04-14 12:14 32.95996 -16.48822 9556 ft 301 kts 212°
2026-04-14 12:14 32.94231 -16.50150 9144 ft 298 kts 212°
2026-04-14 12:14 32.92514 -16.51550 8739 ft 299 kts 220°
2026-04-14 12:15 32.90969 -16.53200 8347 ft 298 kts 221°
2026-04-14 12:15 32.89430 -16.54845 7949 ft 297 kts 221°
2026-04-14 12:15 32.87913 -16.56462 7565 ft 296 kts 221°
2026-04-14 12:15 32.86382 -16.58093 7179 ft 295 kts 221°
2026-04-14 12:16 32.84853 -16.59720 6802 ft 294 kts 221°
2026-04-14 12:16 32.83333 -16.61340 6403 ft 293 kts 221°
2026-04-14 12:16 32.81737 -16.62832 5998 ft 291 kts 209°
2026-04-14 12:16 32.79911 -16.63832 5601 ft 288 kts 196°
2026-04-14 12:17 32.78022 -16.64591 5208 ft 286 kts 196°
2026-04-14 12:17 32.76145 -16.65353 4802 ft 284 kts 197°
2026-04-14 12:17 32.74281 -16.66110 4393 ft 282 kts 197°
2026-04-14 12:17 32.72427 -16.66865 3991 ft 281 kts 197°
2026-04-14 12:18 32.70588 -16.67612 3592 ft 278 kts 197°
2026-04-14 12:18 32.68792 -16.68343 3176 ft 268 kts 197°
2026-04-14 12:18 32.67062 -16.69050 2772 ft 258 kts 197°
2026-04-14 12:18 32.65391 -16.69731 2358 ft 250 kts 197°
2026-04-14 12:19 32.63789 -16.70412 2034 ft 238 kts 205°
2026-04-14 12:19 32.62493 -16.71414 2009 ft 215 kts 223°
2026-04-14 12:19 32.61578 -16.72713 2015 ft 194 kts 239°
2026-04-14 12:19 32.61052 -16.74113 2004 ft 180 kts 256°
2026-04-14 12:20 32.60851 -16.75559 2017 ft 177 kts 271°
2026-04-14 12:20 32.60949 -16.76997 2046 ft 174 kts 284°
2026-04-14 12:20 32.61337 -16.78333 1928 ft 170 kts 302°
2026-04-14 12:20 32.62065 -16.79394 1694 ft 164 kts 323°
2026-04-14 12:21 32.63029 -16.80080 1459 ft 160 kts 344°
2026-04-14 12:21 32.64096 -16.80345 1246 ft 152 kts
2026-04-14 12:21 32.65104 -16.80330 1016 ft 142 kts
2026-04-14 12:21 32.66072 -16.80320 829 ft 138 kts
2026-04-14 12:22 32.66998 -16.80128 682 ft 135 kts 20°
2026-04-14 12:22 32.67840 -16.79637 484 ft 133 kts 33°
2026-04-14 12:22 32.68548 -16.78896 316 ft 137 kts 44°
2026-04-14 12:22 32.69208 -16.78111 208 ft 134 kts 44°
2026-04-14 12:23 32.69871 -16.77343 283 ft 138 kts 44°
2026-04-14 12:23 32.70559 -16.76515 702 ft 143 kts 43°
2026-04-14 12:23 32.71303 -16.75620 880 ft 167 kts 47°
2026-04-14 12:23 32.71988 -16.74397 1211 ft 188 kts 64°
2026-04-14 12:24 32.72460 -16.72923 1830 ft 194 kts 73°
2026-04-14 12:24 32.72564 -16.71327 1987 ft 198 kts 99°
2026-04-14 12:24 32.71957 -16.69892 2003 ft 194 kts 132°
2026-04-14 12:24 32.70809 -16.69114 2005 ft 193 kts 165°
2026-04-14 12:25 32.69472 -16.69149 2017 ft 195 kts 187°
2026-04-14 12:25 32.68137 -16.69422 2011 ft 194 kts 187°
2026-04-14 12:25 32.66804 -16.69688 2012 ft 194 kts 187°
2026-04-14 12:25 32.65469 -16.69949 2010 ft 195 kts 188°
2026-04-14 12:26 32.64134 -16.70252 2021 ft 196 kts 194°
2026-04-14 12:26 32.62911 -16.70964 2014 ft 197 kts 215°
2026-04-14 12:26 32.61924 -16.72090 2018 ft 199 kts 233°
2026-04-14 12:26 32.61226 -16.73497 2013 ft 197 kts 249°
2026-04-14 12:27 32.60879 -16.75047 2009 ft 193 kts 264°
2026-04-14 12:27 32.60890 -16.76634 2006 ft 193 kts 281°
2026-04-14 12:27 32.61250 -16.78114 2003 ft 179 kts 299°
2026-04-14 12:27 32.61959 -16.79259 2002 ft 169 kts 320°
2026-04-14 12:28 32.62903 -16.80004 2013 ft 164 kts 340°
2026-04-14 12:28 32.63999 -16.80357 2017 ft 165 kts 356°
2026-04-14 12:28 32.65116 -16.80367 2010 ft 158 kts
2026-04-14 12:28 32.66216 -16.80305 2001 ft 158 kts 17°
2026-04-14 12:29 32.67052 -16.79553 1999 ft 154 kts 63°
2026-04-14 12:29 32.67362 -16.78332 2020 ft 156 kts 77°
2026-04-14 12:29 32.67513 -16.77049 2017 ft 158 kts 81°
2026-04-14 12:29 32.67637 -16.75770 2010 ft 155 kts 82°
2026-04-14 12:30 32.67758 -16.74478 2014 ft 157 kts 82°
2026-04-14 12:30 32.67883 -16.73195 2009 ft 157 kts 81°
2026-04-14 12:30 32.67907 -16.71895 2012 ft 158 kts 93°
2026-04-14 12:30 32.67761 -16.70602 2043 ft 156 kts 96°
2026-04-14 12:31 32.67416 -16.69367 2029 ft 160 kts 112°
2026-04-14 12:31 32.66846 -16.68223 2006 ft 163 kts 126°
2026-04-14 12:31 32.65829 -16.67618 2005 ft 172 kts 171°
2026-04-14 12:31 32.64634 -16.67798 2023 ft 176 kts 193°
2026-04-14 12:32 32.63569 -16.68479 1997 ft 176 kts 226°
2026-04-14 12:32 32.62795 -16.69618 2014 ft 177 kts 235°
2026-04-14 12:32 32.62122 -16.70845 1773 ft 179 kts 244°
2026-04-14 12:32 32.61692 -16.72215 1495 ft 170 kts 253°
2026-04-14 12:33 32.61341 -16.73503 1500 ft 161 kts 253°
2026-04-14 12:33 32.61021 -16.74723 1498 ft 156 kts 256°
2026-04-14 12:33 32.60993 -16.75997 1524 ft 158 kts 277°
2026-04-14 12:33 32.61098 -16.77352 1510 ft 168 kts 283°
2026-04-14 12:34 32.61528 -16.78623 1505 ft 166 kts 307°
2026-04-14 12:34 32.62320 -16.79600 1515 ft 163 kts 328°
2026-04-14 12:34 32.63319 -16.80190 1457 ft 158 kts 346°
2026-04-14 12:34 32.64354 -16.80357 1208 ft 143 kts
2026-04-14 12:35 32.65339 -16.80349 1008 ft 140 kts
2026-04-14 12:35 32.66300 -16.80327 816 ft 138 kts
2026-04-14 12:35 32.67216 -16.80055 626 ft 135 kts 24°
2026-04-14 12:35 32.68009 -16.79500 478 ft 133 kts 38°
2026-04-14 12:36 32.68675 -16.78730 294 ft 133 kts 45°
2026-04-14 12:36 32.69318 -16.77985 193 ft 119 kts 44°
2026-04-14 12:36 32.69775 -16.77461 176 ft 51 kts 46°
2026-04-14 12:36 32.69868 -16.77350 176 ft 14 kts 43°
2026-04-14 12:37 32.69955 -16.77234 176 ft 18 kts 68°
2026-04-14 12:37 32.69901 -16.77180 176 ft 12 kts 205°
2026-04-14 12:37 32.69784 -16.77243 176 ft 26 kts 226°
2026-04-14 12:37 32.69645 -16.77421 176 ft 21 kts 228°
2026-04-14 12:38 32.69445 -16.77668 176 ft 18 kts 225°
2026-04-14 12:38 32.69404 -16.77709 176 ft 3 kts 193°
2026-04-14 12:38 32.69379 -16.77685 176 ft 4 kts 135°
2026-04-14 12:39 32.69359 -16.77662 176 ft 4 kts 137°
2026-04-14 12:39 32.69356 -16.77659 176 ft 0 kts 137°